[[{"header":{"parameterUnit":"m.s-1","parameterCategory":1,"la1":30.2991,"la2":30.254,"lo1":-89.0895,"lo2":-89.0444,"dy":0.0017,"dx":0.0017,"nx":28,"ny":28,"refTime":"2025-09-06T03:00:00:Z","depth":0,"parameterNumber":2,"parameterNumberName":"U-component_of_WINDS"},"data":[0,0,0,0,0,0,0,0,0,0,0,0,0,0,0,0,0,0,0,0,0,0,0,0,0,0,0,0,0,0,0,0,0,0,0,0,0,0,0,0,0,0,0,0,0,0,0,0,0,0,0,0,0,0,0,0,0,0,1.38,1.38,0,1.388,1.3881,1.3882,1.3916,1.3915,1.3915,1.3915,1.3997,1.3999,1.4001,0,0,0,0,0,0,0,0,0,0,0,0,0,1.3673,1.3675,1.3799,1.38,1.3802,1.388,1.3881,1.3882,1.3916,1.3915,1.3915,1.3915,1.3996,1.3999,1.4002,0,0,0,0,0,0,0,0,0,0,0,0,0,1.3738,1.3675,1.3799,1.3828,1.3831,1.388,1.3881,1.3883,1.3916,1.3915,1.3915,1.3915,1.3995,1.3999,1.4002,1.4029,0,0,1.4013,1.4014,0,0,0,0,0,0,0,0,1.3734,1.3743,1.3822,1.3826,1.3829,1.3888,1.3867,1.3932,1.3916,1.3883,1.3915,1.3915,1.3961,1.3967,1.3983,1.4033,1.4036,1.4013,1.4015,1.4017,1.4018,0,0,0,0,0,0,0,1.373,1.3739,1.3831,1.3823,1.3828,1.3836,1.3845,1.3879,1.3922,1.3886,1.3889,1.3898,1.3962,1.3979,1.3985,1.4037,1.4013,1.4016,1.4018,1.402,1.4114,1.4114,0,0,0,0,0,0,1.3721,1.3735,1.3829,1.3834,1.378,1.3838,1.3848,1.3869,1.3922,1.393,1.3898,1.3899,1.3973,1.3981,1.3988,1.4023,1.4017,1.402,1.4022,1.4113,1.4114,1.4114,0,0,0,0,0,0,1.3718,1.3729,1.3826,1.3785,1.3798,1.3841,1.3864,1.3871,1.3888,1.3931,1.3939,1.3907,1.3973,1.3983,1.4018,1.4026,1.4021,1.4025,1.4113,1.4113,1.4114,1.4093,0,0,0,0,0,0,1.3714,1.3727,1.3738,1.3785,1.38,1.3855,1.3864,1.3873,1.3894,1.3896,1.3942,1.3949,1.3974,1.4013,1.4022,1.4031,1.4027,1.4112,1.4113,1.4114,1.4093,1.4093,1.4092,0,0,0,0,0,1.3709,1.3729,1.3739,1.375,1.3815,1.3855,1.3864,1.3892,1.3894,1.3905,1.3933,1.3948,1.4024,1.4016,1.4027,1.4037,1.4112,1.4113,1.4114,1.4093,1.4093,1.4092,0,0,0,0,0,0,1.3681,1.3735,1.3747,1.3782,1.3814,1.3861,1.3876,1.3891,1.3923,1.3923,1.3957,1.3967,1.4,1.4022,1.4013,1.4066,1.4069,1.4072,1.405,1.405,1.4049,1.4043,1.403,0,0,0,0,0,1.3679,1.3708,1.3754,1.378,1.3796,1.3833,1.3852,1.3871,1.3905,1.3919,1.3949,1.3981,1.4013,1.4033,1.4064,1.4097,1.4107,1.4109,1.4108,1.4108,1.411,1.4129,1.413,1.4117,1.4117,1.4117,0,0,1.3675,1.3708,1.3724,1.3776,1.3802,1.3831,1.3844,1.3874,1.3896,1.3923,1.3959,1.3982,1.402,1.4055,1.4071,1.4074,1.4116,1.4109,1.4108,1.4111,1.413,1.4131,1.4132,1.4118,1.4118,1.4117,0,0,1.3682,1.371,1.3736,1.3762,1.3803,1.3828,1.3834,1.3879,1.3895,1.3932,1.3953,1.3979,1.4032,1.4059,1.4079,1.4097,1.4111,1.4106,1.4104,1.4122,1.4123,1.4124,1.413,1.4132,1.4108,1.4108,1.4108,0,1.3671,1.3716,1.3747,1.3776,1.3797,1.3824,1.385,1.3874,1.3923,1.3937,1.394,1.4007,1.4035,1.4076,1.408,1.4096,1.4104,1.4101,1.4121,1.4122,1.4123,1.413,1.4132,1.4107,1.4107,1.4107,1.4107,0,1.3701,1.3732,1.3747,1.3794,1.3818,1.3845,1.3879,1.39,1.3917,1.3941,1.3978,1.4012,1.4051,1.4062,1.4079,1.4105,1.4106,1.4114,1.4118,1.4123,1.413,1.4132,1.4106,1.4106,1.4106,1.4106,0,0,1.3692,1.3756,1.3761,1.3783,1.383,1.3854,1.3882,1.3921,1.3937,1.397,1.3994,1.4039,1.4047,1.407,1.409,1.4106,1.4118,1.4113,1.4114,1.4112,1.415,1.4143,1.4145,1.4128,1.4129,1.4129,1.4146,0,1.3706,1.3758,1.3787,1.3827,1.3856,1.3881,1.3906,1.3937,1.3961,1.3989,1.4015,1.4046,1.4054,1.4068,1.4085,1.4113,1.4126,1.4112,1.4151,1.4152,1.414,1.4149,1.4142,1.4156,1.4149,1.415,1.415,0,1.3729,1.3761,1.3804,1.3848,1.3862,1.3883,1.3921,1.3947,1.3983,1.3999,1.4025,1.4045,1.4076,1.4077,1.412,1.411,1.4128,1.4144,1.4145,1.415,1.4151,1.4153,1.4162,1.4164,1.4154,1.4154,1.4154,0,1.3718,1.3773,1.3806,1.3823,1.3875,1.389,1.3912,1.3948,1.3969,1.4002,1.4016,1.4052,1.4071,1.4098,1.4127,1.4126,1.4167,1.4172,1.4181,1.4181,1.4189,1.4188,1.42,1.42,1.42,1.42,1.42,0,1.373,1.3755,1.3802,1.3822,1.3851,1.3883,1.3911,1.3936,1.3967,1.3993,1.4017,1.404,1.4077,1.4105,1.4128,1.416,1.4169,1.4183,1.4188,1.418,1.4179,1.4192,1.4192,1.4201,1.4201,1.4201,1.42,0,1.3723,1.3755,1.3792,1.3839,1.3851,1.387,1.391,1.3931,1.3956,1.3987,1.3997,1.4036,1.407,1.4101,1.4147,1.4162,1.4194,1.4202,1.4182,1.4185,1.4193,1.4192,1.4215,1.4219,1.4216,1.4216,1.4216,0,1.3728,1.3748,1.3797,1.3816,1.3838,1.3868,1.389,1.3922,1.3944,1.3987,1.4002,1.4038,1.4068,1.4122,1.4154,1.4189,1.4197,1.4203,1.4203,1.4194,1.4197,1.4196,1.4198,1.4202,1.4202,1.4202,1.4202,0,1.3734,1.3749,1.378,1.3817,1.3842,1.3872,1.3903,1.3917,1.3955,1.3979,1.4014,1.4037,1.4084,1.4119,1.4158,1.4181,1.4198,1.4201,1.4206,1.4197,1.4185,1.4192,1.4181,1.4201,1.4201,1.4201,1.4201,1.4201,1.3734,1.3753,1.379,1.3824,1.3851,1.3879,1.3901,1.3928,1.3958,1.3999,1.4016,1.4052,1.4088,1.4141,1.4164,1.4192,1.4196,1.4202,1.4204,1.4204,1.4203,1.4181,1.4199,1.42,1.42,1.42,1.42,0,1.3741,1.3767,1.3797,1.384,1.3866,1.388,1.3915,1.3936,1.3967,1.3999,1.4029,1.4069,1.4104,1.4139,1.4175,1.4191,1.42,1.42,1.4199,1.4204,1.4197,1.419,1.4192,1.4192,1.4192,1.4192,1.4192,1.4192,1.3748,1.3782,1.3801,1.3848,1.3873,1.3908,1.3927,1.3953,1.3979,1.4023,1.4052,1.4075,1.4108,1.4147,1.418,1.4189,1.4201,1.4199,1.421,1.4204,1.4204,1.4204,1.4198,1.4201,1.4201,1.4214,1.4215,1.4215]},{"header":{"parameterUnit":"m.s-1","parameterCategory":1,"la1":30.2991,"la2":30.254,"lo1":-89.0895,"lo2":-89.0444,"dy":0.0017,"dx":0.0017,"nx":28,"ny":28,"refTime":"2025-09-06T03:00:00:Z","depth":0,"parameterNumber":3,"parameterNumberName":"V-component_of_WINDS"},"data":[0,0,0,0,0,0,0,0,0,0,0,0,0,0,0,0,0,0,0,0,0,0,0,0,0,0,0,0,0,0,0,0,0,0,0,0,0,0,0,0,0,0,0,0,0,0,0,0,0,0,0,0,0,0,0,0,0,0,0.8299,0.8298,0,0.8252,0.8251,0.8251,0.8198,0.8197,0.8197,0.8196,0.8148,0.8147,0.8146,0,0,0,0,0,0,0,0,0,0,0,0,0,0.8342,0.8342,0.8299,0.8298,0.8298,0.8252,0.8251,0.8251,0.8198,0.8197,0.8196,0.8195,0.8148,0.8147,0.8146,0,0,0,0,0,0,0,0,0,0,0,0,0,0.8312,0.8342,0.8299,0.8266,0.8263,0.8252,0.8251,0.825,0.8198,0.8197,0.8196,0.8195,0.8148,0.8147,0.8146,0.8164,0,0,0.8144,0.8143,0,0,0,0,0,0,0,0,0.8314,0.8311,0.8272,0.8268,0.8265,0.823,0.8249,0.8222,0.8199,0.8223,0.8196,0.8194,0.8176,0.8173,0.8166,0.8162,0.816,0.8144,0.8143,0.8143,0.8142,0,0,0,0,0,0,0,0.8316,0.8312,0.828,0.8271,0.8267,0.8253,0.8248,0.8243,0.8206,0.8221,0.8217,0.8212,0.8174,0.8167,0.8165,0.8159,0.8144,0.8143,0.8142,0.8142,0.8165,0.8166,0,0,0,0,0,0,0.8323,0.8315,0.8282,0.8279,0.8287,0.8253,0.8247,0.8242,0.8206,0.82,0.8213,0.821,0.8169,0.8166,0.8163,0.818,0.8143,0.8142,0.8141,0.8164,0.8166,0.8167,0,0,0,0,0,0,0.8324,0.8321,0.8284,0.8296,0.829,0.8254,0.8249,0.8242,0.8235,0.82,0.8194,0.8213,0.8168,0.8164,0.8164,0.8178,0.8142,0.8141,0.8163,0.8165,0.8166,0.8216,0,0,0,0,0,0,0.8326,0.8322,0.8329,0.8296,0.8289,0.8286,0.8249,0.8242,0.8234,0.8229,0.8199,0.8193,0.8167,0.8165,0.8163,0.8176,0.814,0.8161,0.8164,0.8166,0.8213,0.8219,0.8225,0,0,0,0,0,0.8328,0.8345,0.8329,0.8326,0.8297,0.8287,0.8283,0.8253,0.8235,0.8242,0.8219,0.8194,0.8177,0.8166,0.8163,0.8176,0.816,0.8163,0.8165,0.8211,0.8218,0.8225,0,0,0,0,0,0,0.838,0.834,0.8322,0.833,0.8312,0.8278,0.8285,0.8262,0.825,0.8246,0.8209,0.8202,0.8206,0.8191,0.818,0.819,0.8165,0.8167,0.82,0.8207,0.8213,0.8216,0.8139,0,0,0,0,0,0.8393,0.8388,0.8353,0.8363,0.8355,0.8322,0.8316,0.8294,0.8275,0.8267,0.8245,0.8226,0.8216,0.8211,0.82,0.8211,0.8202,0.8218,0.8224,0.8229,0.8231,0.8233,0.8239,0.8175,0.8175,0.8175,0,0,0.8418,0.8396,0.8395,0.8373,0.8357,0.8352,0.8316,0.8313,0.8309,0.8267,0.8265,0.8248,0.8225,0.8229,0.823,0.8217,0.8247,0.8232,0.8236,0.8235,0.8236,0.8243,0.8248,0.8177,0.8176,0.8176,0,0,0.8462,0.8445,0.8451,0.8435,0.8411,0.8389,0.839,0.8359,0.8346,0.8344,0.8311,0.8306,0.829,0.8275,0.8265,0.8302,0.8278,0.8299,0.8329,0.8332,0.8337,0.8342,0.8354,0.8359,0.8301,0.8302,0.8302,0,0.8497,0.8489,0.8457,0.8455,0.8446,0.8407,0.8412,0.8398,0.8372,0.8366,0.8351,0.833,0.8312,0.8311,0.832,0.8314,0.8313,0.8302,0.8339,0.8343,0.8347,0.8358,0.8363,0.8304,0.8304,0.8304,0.8303,0,0.8532,0.8527,0.8535,0.851,0.8501,0.8503,0.847,0.8465,0.8444,0.8423,0.842,0.8397,0.838,0.8378,0.8358,0.8375,0.8367,0.8346,0.832,0.8356,0.8366,0.837,0.8308,0.8307,0.8306,0.8306,0,0,0.8609,0.8565,0.8568,0.8556,0.8526,0.8521,0.852,0.8504,0.85,0.8483,0.848,0.8468,0.8448,0.8437,0.8414,0.8417,0.8445,0.8395,0.8394,0.8404,0.8461,0.8476,0.8482,0.8429,0.843,0.843,0.8462,0,0.8647,0.8644,0.8614,0.8619,0.8613,0.8575,0.8575,0.8556,0.8536,0.8528,0.8505,0.8496,0.8472,0.8464,0.8465,0.8442,0.8456,0.8439,0.8426,0.8426,0.8432,0.8487,0.8503,0.8535,0.8466,0.8467,0.8467,0,0.8691,0.8676,0.868,0.8649,0.8645,0.8645,0.8627,0.862,0.8597,0.8582,0.8569,0.8543,0.8539,0.8515,0.8508,0.8497,0.849,0.8477,0.8478,0.8475,0.8449,0.8485,0.8544,0.8548,0.8473,0.8472,0.8472,0,0.8745,0.8726,0.8725,0.8716,0.868,0.8681,0.8665,0.8642,0.8633,0.8617,0.861,0.8594,0.8585,0.8573,0.8542,0.8527,0.8539,0.8512,0.8525,0.8526,0.8529,0.853,0.8588,0.8526,0.8526,0.8526,0.8526,0,0.879,0.8794,0.8749,0.8749,0.8752,0.8717,0.8721,0.8702,0.8681,0.8676,0.8642,0.8638,0.8599,0.859,0.8566,0.8564,0.856,0.8547,0.8541,0.855,0.8551,0.8544,0.8541,0.8527,0.8527,0.8527,0.8526,0,0.8851,0.8821,0.8818,0.8784,0.8775,0.8778,0.8749,0.8746,0.8724,0.8718,0.8714,0.8679,0.8667,0.8635,0.8615,0.8599,0.8602,0.8591,0.861,0.8606,0.8621,0.8619,0.8676,0.8681,0.8617,0.8618,0.8618,0,0.8881,0.8883,0.8849,0.8843,0.8829,0.882,0.8811,0.8777,0.8768,0.8742,0.8743,0.8728,0.8714,0.8695,0.8667,0.8651,0.8638,0.8659,0.8636,0.8644,0.8637,0.8637,0.8637,0.8664,0.8665,0.8666,0.8666,0,0.8938,0.8923,0.8911,0.8894,0.8884,0.8869,0.8852,0.8849,0.881,0.8802,0.8789,0.8778,0.8756,0.8741,0.872,0.8704,0.8678,0.8674,0.8676,0.8685,0.8696,0.8689,0.8623,0.8673,0.8672,0.8672,0.8671,0.8671,0.8984,0.8983,0.8959,0.8946,0.893,0.8914,0.891,0.8887,0.8876,0.8855,0.8836,0.8824,0.88,0.8769,0.8754,0.8744,0.8731,0.8734,0.8735,0.8736,0.8739,0.8698,0.874,0.874,0.8739,0.8739,0.8739,0,0.9038,0.902,0.9009,0.8986,0.8976,0.8953,0.8933,0.8926,0.8916,0.8896,0.8882,0.8866,0.8851,0.8822,0.8804,0.8801,0.8789,0.8797,0.8797,0.8793,0.8753,0.8752,0.8807,0.8807,0.8807,0.8807,0.8807,0.8807,0.9065,0.9063,0.9045,0.9033,0.9015,0.9004,0.8994,0.8979,0.8962,0.8946,0.8933,0.8914,0.8889,0.8869,0.8854,0.8845,0.884,0.8852,0.884,0.8803,0.8796,0.879,0.8789,0.8851,0.8851,0.8881,0.8881,0.8881]}]]